{"data":{"norad_id":67500,"intl_designator":"2026-012H","name":"STARLINK-36557","alt_names":[],"object_type":"PAYLOAD","status":"ACTIVE","operator":null,"country":"US","launch_date":"2026-01-18","launch_site_code":"AFETR","launch_vehicle":null,"mission":null,"orbit_class":"UNKNOWN","rcs_meters":null,"size_class":null,"mass_kg":null,"dimensions":null,"purposes":["comms"],"wikipedia_slug":null,"has_3d_model":false,"image_url":null,"decayed_at":null,"tle_current":{"epoch":"2026-05-24T16:23:13.998624Z","epoch_age_seconds":102799,"freshness":"FRESH","line1":"1 67500U 26012H   26144.68280091  .00007479  00000+0  28098-3 0  9996","line2":"2 67500  43.0009 245.2704 0001582 267.5445  92.5226 15.27587466 19387","mean_motion":15.27587466,"eccentricity":0.0001582,"inclination_deg":43.0009,"raan_deg":245.2704,"arg_perigee_deg":267.5445,"mean_anomaly_deg":92.5226,"bstar":0.00028098,"rev_number":1938,"period_min":94.266287990085,"perigee_km":481.94130413712,"apogee_km":484.11217634453,"semimajor_km":6861.1637402408,"source":"CELESTRAK","updated_at":"2026-05-25T13:38:21.567728Z"}}}